N0JVW-13 Weather Reports


time (UTC)temp
C
wind
direction
speed
KPH
gust
KPH
rain 1hr
cm
rain 24hr
cm
rain mn
cm
humidity
%
barometer
mb
20260904124100 23 114 0.0 0.0 0.00 0.00 0.00 48 1012.1
20260904123540 23 154 0.0 0.0 0.00 0.00 0.00 47 1012.1
20260904123020 23 154 0.0 0.0 0.00 0.00 0.00 47 1012.0
20260904122606 23 155 0.0 0.0 0.00 0.00 0.00 45 1012.0
20260904122042 23 154 0.0 0.0 0.00 0.00 0.00 45 1012.0
20260904121519 23 154 0.0 0.0 0.00 0.00 0.00 44 1012.0
20260904121103 23 155 0.0 0.0 0.00 0.00 0.00 46 1011.9
20260904120541 23 154 0.0 0.0 0.00 0.00 0.00 46 1011.8
20260904120032 23 154 0.0 0.0 0.00 0.00 0.00 47 1011.7
20260904115501 23 154 0.0 0.0 0.00 0.00 0.00 50 1011.7
20260904115045 23 154 0.0 0.0 0.00 0.00 0.00 50 1011.8
20260904114524 23 154 0.0 1.6 0.00 0.00 0.00 51 1011.7
20260904114003 23 153 0.0 1.6 0.00 0.00 0.00 53 1011.7
20260904113544 23 144 0.0 0.0 0.00 0.00 0.00 56 1011.7
20260904113024 23 141 0.0 0.0 0.00 0.00 0.00 58 1011.6
20260904112502 23 141 0.0 0.0 0.00 0.00 0.00 59 1011.6
20260904112045 23 141 0.0 0.0 0.00 0.00 0.00 59 1011.6
20260904111525 23 141 0.0 0.0 0.00 0.00 0.00 59 1011.5
20260904111004 23 141 0.0 0.0 0.00 0.00 0.00 60 1011.5
20260904110549 23 141 0.0 0.0 0.00 0.00 0.00 60 1011.4
20260904110027 23 141 0.0 0.0 0.00 0.00 0.00 62 1011.3
20260904105507 23 141 0.0 0.0 0.00 0.00 0.00 62 1011.2
20260904105051 23 141 0.0 0.0 0.00 0.00 0.00 63 1011.3
20260904104527 23 141 0.0 0.0 0.00 0.00 0.00 64 1011.2
20260904104009 23 141 0.0 0.0 0.00 0.00 0.00 64 1011.2
20260904103551 23 141 0.0 0.0 0.00 0.00 0.00 64 1011.1
20260904103031 23 141 0.0 0.0 0.00 0.00 0.00 65 1011.1
20260904102510 23 141 0.0 0.0 0.00 0.00 0.00 65 1011.0
20260904102054 23 141 0.0 0.0 0.00 0.00 0.00 65 1011.1
20260904101535 23 141 0.0 0.0 0.00 0.00 0.00 66 1011.0
20260904101018 24 141 0.0 0.0 0.00 0.00 0.00 66 1011.0
20260904100556 24 141 0.0 0.0 0.00 0.00 0.00 66 1011.0
20260904100036 24 141 0.0 0.0 0.00 0.00 0.00 67 1010.9
20260904095519 24 141 0.0 0.0 0.00 0.00 0.00 67 1010.9
20260904095058 24 141 0.0 0.0 0.00 0.00 0.00 67 1010.9
20260904094538 24 141 0.0 0.0 0.00 0.00 0.00 68 1010.8
20260904094018 24 141 0.0 1.6 0.00 0.00 0.00 68 1010.7
20260904093601 24 141 0.0 1.6 0.00 0.00 0.00 68 1010.7
20260904093040 24 141 0.0 0.0 0.00 0.00 0.00 69 1010.7
20260904092518 24 141 0.0 0.0 0.00 0.00 0.00 69 1010.6
20260904092103 24 141 0.0 0.0 0.00 0.00 0.00 69 1010.6
20260904091542 24 141 0.0 0.0 0.00 0.00 0.00 69 1010.6
20260904091024 24 141 0.0 0.0 0.00 0.00 0.00 69 1010.5
20260904090500 25 141 0.0 0.0 0.00 0.00 0.00 70 1010.5
20260904090044 25 141 0.0 0.0 0.00 0.00 0.00 70 1010.4
20260904085524 25 141 0.0 0.0 0.00 0.00 0.00 70 1010.3
20260904085003 25 141 0.0 0.0 0.00 0.00 0.00 70 1010.3
20260904084555 25 141 0.0 0.0 0.00 0.00 0.00 71 1010.2
20260904084026 25 141 0.0 0.0 0.00 0.00 0.00 71 1010.2
20260904083507 25 141 0.0 0.0 0.00 0.00 0.00 71 1010.3
20260904083053 25 141 0.0 0.0 0.00 0.00 0.00 71 1010.3
20260904082529 25 141 0.0 0.0 0.00 0.00 0.00 71 1010.2
20260904082010 25 141 0.0 1.6 0.00 0.00 0.00 71 1010.2
20260904081553 25 129 0.0 1.6 0.00 0.00 0.00 71 1010.2
20260904081035 25 129 0.0 0.0 0.00 0.00 0.00 71 1010.1
20260904080511 25 129 0.0 0.0 0.00 0.00 0.00 71 1010.1
20260904080115 25 129 0.0 0.0 0.00 0.00 0.00 71 1010.1
20260904075535 25 129 0.0 0.0 0.00 0.00 0.00 71 1010.2
20260904075012 25 129 0.0 0.0 0.00 0.00 0.00 71 1010.1
20260904074557 25 129 0.0 0.0 0.00 0.00 0.00 71 1010.1
20260904074041 25 129 0.0 0.0 0.00 0.00 0.00 71 1010.1
20260904073514 25 129 0.0 0.0 0.00 0.00 0.00 71 1010.1
20260904073057 25 129 0.0 0.0 0.00 0.00 0.00 71 1010.1
20260904072540 25 129 0.0 0.0 0.00 0.00 0.00 71 1010.0
20260904072016 25 129 0.0 0.0 0.00 0.00 0.00 71 1010.0
20260904071603 25 129 0.0 0.0 0.00 0.00 0.00 71 1010.0
20260904071039 26 129 0.0 0.0 0.00 0.00 0.00 71 1010.0
20260904070526 26 129 0.0 0.0 0.00 0.00 0.00 71 1010.1
20260904065541 26 129 0.0 0.0 0.00 0.00 0.00 71 1010.1
20260904065021 26 129 0.0 0.0 0.00 0.00 0.00 71 1010.1
20260904064501 26 129 0.0 0.0 0.00 0.00 0.00 71 1010.2
20260904064045 26 129 0.0 0.0 0.00 0.00 0.00 71 1010.1
20260904063524 26 129 0.0 0.0 0.00 0.00 0.00 71 1010.0
20260904063004 26 129 0.0 0.0 0.00 0.00 0.00 71 1010.1
20260904062547 26 129 0.0 0.0 0.00 0.00 0.00 71 1010.1
20260904062027 26 129 0.0 0.0 0.00 0.00 0.00 70 1010.1
20260904061507 26 129 0.0 0.0 0.00 0.00 0.00 70 1010.1
20260904061053 26 129 0.0 0.0 0.00 0.00 0.00 70 1010.0
20260904060530 26 129 0.0 0.0 0.00 0.00 0.00 70 1009.9
20260904060012 26 129 0.0 0.0 0.00 0.00 0.00 69 1010.0
20260904055555 26 129 0.0 0.0 0.00 0.00 0.00 69 1010.0
20260904055033 26 129 0.0 0.0 0.00 0.00 0.00 69 1010.0
20260904054527 27 129 0.0 0.0 0.00 0.00 0.00 69 1009.9
20260904054056 27 129 0.0 0.0 0.00 0.00 0.00 68 1010.0
20260904053535 27 129 0.0 0.0 0.00 0.00 0.00 69 1009.9
20260904053019 27 129 0.0 0.0 0.00 0.00 0.00 68 1009.9
20260904052601 27 129 0.0 0.0 0.00 0.00 0.00 68 1009.9
20260904052038 27 129 0.0 1.6 0.00 0.00 0.00 67 1009.9
20260904051520 27 129 0.0 1.6 0.00 0.00 0.00 67 1009.7
20260904051100 27 143 0.0 0.0 0.00 0.00 0.00 67 1009.7
20260904050540 27 143 0.0 1.6 0.00 0.00 0.00 67 1009.7
20260904050020 27 143 0.0 0.0 0.00 0.00 0.00 67 1009.7
20260904045602 27 143 0.0 0.0 0.00 0.00 0.00 68 1009.7
20260904045040 26 143 0.0 0.0 0.00 0.00 0.00 69 1009.6
20260904044519 26 143 0.0 0.0 0.00 0.00 0.00 70 1009.7
20260904044102 26 143 0.0 0.0 0.00 0.00 0.00 70 1009.6
20260904043543 26 143 0.0 0.0 0.00 0.00 0.00 70 1009.7
20260904043034 26 143 0.0 0.0 0.00 0.00 0.00 71 1009.6
20260904042504 26 143 0.0 0.0 0.00 0.00 0.00 71 1009.6
20260904042047 26 143 0.0 0.0 0.00 0.00 0.00 70 1009.7
20260904041524 26 143 0.0 0.0 0.00 0.00 0.00 70 1009.6
20260904041003 26 143 0.0 0.0 0.00 0.00 0.00 70 1009.6
20260904040545 26 143 0.0 0.0 0.00 0.00 0.00 71 1009.6
20260904040025 26 143 0.0 0.0 0.00 0.00 0.00 70 1009.6
20260904035505 26 143 0.0 0.0 0.00 0.00 0.00 70 1009.7
20260904035050 27 143 0.0 0.0 0.00 0.00 0.00 70 1009.7
20260904034528 27 143 0.0 0.0 0.00 0.00 0.00 70 1009.6
20260904034006 27 143 0.0 0.0 0.00 0.00 0.00 69 1009.7
20260904033550 27 143 0.0 0.0 0.00 0.00 0.00 70 1009.7
20260904033032 27 143 0.0 0.0 0.00 0.00 0.00 69 1009.6
20260904032508 27 143 0.0 0.0 0.00 0.00 0.00 69 1009.6
20260904032056 27 143 0.0 0.0 0.00 0.00 0.00 69 1009.7
20260904031532 27 143 0.0 0.0 0.00 0.00 0.00 69 1009.6
20260904031011 27 143 0.0 0.0 0.00 0.00 0.00 68 1009.7
20260904030559 27 143 0.0 0.0 0.00 0.00 0.00 68 1009.7
20260904030051 27 143 0.0 0.0 0.00 0.00 0.00 67 1009.6
20260904025514 27 143 0.0 0.0 0.00 0.00 0.00 66 1009.6
20260904025058 27 143 0.0 0.0 0.00 0.00 0.00 66 1009.6
20260904024537 27 143 0.0 0.0 0.00 0.00 0.00 66 1009.5
20260904024014 27 143 0.0 0.0 0.00 0.00 0.00 64 1009.5
20260904023559 28 143 0.0 0.0 0.00 0.00 0.00 64 1009.4
20260904023039 28 143 0.0 0.0 0.00 0.00 0.00 63 1009.4
20260904022518 28 143 0.0 0.0 0.00 0.00 0.00 63 1009.3
20260904022102 28 143 0.0 0.0 0.00 0.00 0.00 62 1009.3
20260904021555 28 143 0.0 0.0 0.00 0.00 0.00 62 1009.2
20260904021021 28 143 0.0 0.0 0.00 0.00 0.00 61 1009.0
20260904020501 29 143 0.0 0.0 0.00 0.00 0.00 60 1009.0
20260904020045 29 143 0.0 0.0 0.00 0.00 0.00 59 1008.9
20260904015527 29 143 0.0 0.0 0.00 0.00 0.00 59 1008.9
20260904015003 30 143 0.0 0.0 0.00 0.00 0.00 59 1008.8
20260904014553 30 143 0.0 0.0 0.00 0.00 0.00 58 1008.8
20260904014031 30 143 0.0 0.0 0.00 0.00 0.00 58 1008.6
20260904013504 30 143 0.0 0.0 0.00 0.00 0.00 56 1008.6
20260904013112 30 143 0.0 0.0 0.00 0.00 0.00 56 1008.5
20260904012528 30 143 0.0 0.0 0.00 0.00 0.00 55 1008.5
20260904012007 31 143 0.0 0.0 0.00 0.00 0.00 55 1008.4
20260904011621 31 143 0.0 0.0 0.00 0.00 0.00 54 1008.4
20260904011029 31 143 0.0 0.0 0.00 0.00 0.00 54 1008.4
20260904010508 31 143 0.0 0.0 0.00 0.00 0.00 54 1008.4
20260904010053 31 143 0.0 0.0 0.00 0.00 0.00 53 1008.3
20260904005532 31 143 0.0 0.0 0.00 0.00 0.00 53 1008.3
20260904005010 31 143 0.0 0.0 0.00 0.00 0.00 52 1008.3
20260904004554 32 143 0.0 0.0 0.00 0.00 0.00 52 1008.3
20260904004036 32 143 0.0 0.0 0.00 0.00 0.00 51 1008.3
20260904003513 32 143 0.0 0.0 0.00 0.00 0.00 50 1008.3
20260904003056 32 143 0.0 1.6 0.00 0.00 0.00 50 1008.4
20260904002533 32 129 0.0 1.6 0.00 0.00 0.00 49 1008.3
20260904002013 32 143 0.0 1.6 0.00 0.00 0.00 49 1008.4
20260904001555 33 143 0.0 1.6 0.00 0.00 0.00 49 1008.4
20260904001034 33 143 0.0 1.6 0.00 0.00 0.00 48 1008.4
20260904000514 33 122 0.0 1.6 0.00 0.00 0.00 48 1008.5
20260904000057 33 122 0.0 4.8 0.00 0.00 0.00 48 1008.5
20260903235537 33 137 0.0 4.8 0.00 0.00 0.00 46 1008.4
20260903235016 33 153 0.0 4.8 0.00 0.00 0.00 46 1008.4
20260903234600 33 129 0.0 1.6 0.00 0.00 0.00 47 1008.4
20260903234040 33 137 0.0 3.2 0.00 0.00 0.00 46 1008.4
20260903233519 33 151 0.0 3.2 0.00 0.00 0.00 46 1008.5
20260903233107 33 156 0.0 3.2 0.00 0.00 0.00 46 1008.4
20260903232541 33 139 0.0 4.8 0.00 0.00 0.00 46 1008.4
20260903232021 34 130 1.6 4.8 0.00 0.00 0.00 45 1008.4
20260903231501 34 114 1.6 4.8 0.00 0.00 0.00 45 1008.4
20260903231045 34 122 1.6 4.8 0.00 0.00 0.00 45 1008.4
20260903230527 34 136 0.0 4.8 0.00 0.00 0.00 45 1008.4
20260903230005 34 160 1.6 4.8 0.00 0.00 0.00 45 1008.5
20260903225549 34 135 0.0 4.8 0.00 0.00 0.00 45 1008.5
20260903225028 34 149 0.0 6.4 0.00 0.00 0.00 46 1008.5
20260903224508 34 158 0.0 6.4 0.00 0.00 0.00 46 1008.6
20260903224051 34 105 0.0 4.8 0.00 0.00 0.00 46 1008.5
20260903223531 34 157 0.0 4.8 0.00 0.00 0.00 46 1008.6
20260903223012 34 174 0.0 4.8 0.00 0.00 0.00 45 1008.6
20260903222556 34 150 0.0 4.8 0.00 0.00 0.00 45 1008.7
20260903222035 34 143 1.6 4.8 0.00 0.00 0.00 45 1008.7
20260903221514 34 158 0.0 3.2 0.00 0.00 0.00 45 1008.6
20260903221058 34 138 0.0 4.8 0.00 0.00 0.00 45 1008.6
20260903220537 34 156 0.0 4.8 0.00 0.00 0.00 45 1008.6
20260903220021 34 156 0.0 3.2 0.00 0.00 0.00 45 1008.7
20260903215601 34 132 0.0 4.8 0.00 0.00 0.00 45 1008.7
20260903215041 34 117 0.0 6.4 0.00 0.00 0.00 45 1008.8
20260903214519 34 144 1.6 4.8 0.00 0.00 0.00 44 1008.7
20260903214104 34 159 0.0 6.4 0.00 0.00 0.00 44 1008.8
20260903213542 35 159 0.0 6.4 0.00 0.00 0.00 44 1008.8
20260903213021 34 128 0.0 1.6 0.00 0.00 0.00 46 1008.8
20260903212501 35 127 0.0 3.2 0.00 0.00 0.00 45 1008.8
20260903212045 35 149 0.0 6.4 0.00 0.00 0.00 44 1008.9
20260903211533 35 154 1.6 6.4 0.00 0.00 0.00 44 1008.9
20260903211002 35 155 1.6 4.8 0.00 0.00 0.00 45 1008.9
20260903210545 35 165 0.0 3.2 0.00 0.00 0.00 45 1008.9
20260903210025 34 108 0.0 3.2 0.00 0.00 0.00 45 1009.0
20260903205507 34 145 0.0 4.8 0.00 0.00 0.00 45 1009.0
20260903205048 34 179 0.0 8.0 0.00 0.00 0.00 45 1009.0
20260903204528 35 163 1.6 8.0 0.00 0.00 0.00 44 1009.0
20260903204006 35 134 1.6 6.4 0.00 0.00 0.00 46 1009.1
20260903203550 34 146 0.0 6.4 0.00 0.00 0.00 45 1009.1
20260903203038 34 156 0.0 6.4 0.00 0.00 0.00 46 1009.2
20260903202518 34 159 0.0 4.8 0.00 0.00 0.00 47 1009.2
20260903202101 34 131 0.0 4.8 0.00 0.00 0.00 46 1009.2
20260903201541 35 155 1.6 6.4 0.00 0.00 0.00 46 1009.3
20260903201019 35 169 1.6 8.0 0.00 0.00 0.00 46 1009.3
20260903200559 35 170 1.6 8.0 0.00 0.00 0.00 46 1009.3
20260903200040 34 143 0.0 9.7 0.00 0.00 0.00 46 1009.4
20260903195518 34 167 3.2 8.0 0.00 0.00 0.00 46 1009.5
20260903195101 35 163 1.6 6.4 0.00 0.00 0.00 46 1009.5
20260903194541 34 153 0.0 8.0 0.00 0.00 0.00 46 1009.5
20260903194021 34 117 0.0 8.0 0.00 0.00 0.00 47 1009.6
20260903193604 35 161 1.6 8.0 0.00 0.00 0.00 46 1009.7
20260903193044 34 176 0.0 6.4 0.00 0.00 0.00 48 1009.6
20260903192524 34 155 0.0 8.0 0.00 0.00 0.00 48 1009.7
20260903192001 34 134 1.6 6.4 0.00 0.00 0.00 47 1009.8
20260903191545 34 181 0.0 6.4 0.00 0.00 0.00 47 1009.8
20260903191025 34 165 1.6 6.4 0.00 0.00 0.00 47 1009.9
20260903190505 34 88 1.6 6.4 0.00 0.00 0.00 47 1010.0
20260903190045 34 167 1.6 9.7 0.00 0.00 0.00 49 1010.0
20260903185524 34 129 0.0 9.7 0.00 0.00 0.00 49 1010.0
20260903185004 33 135 0.0 9.7 0.00 0.00 0.00 50 1010.1
20260903184550 33 162 0.0 9.7 0.00 0.00 0.00 50 1010.2
20260903184029 33 205 3.2 6.4 0.00 0.00 0.00 48 1010.1
20260903183514 33 129 1.6 6.4 0.00 0.00 0.00 49 1010.2
20260903183055 33 125 1.6 6.4 0.00 0.00 0.00 50 1010.2
20260903182529 33 170 0.0 6.4 0.00 0.00 0.00 51 1010.3
20260903182009 33 160 1.6 4.8 0.00 0.00 0.00 50 1010.4
20260903181552 33 147 0.0 4.8 0.00 0.00 0.00 50 1010.4
20260903181031 33 134 0.0 4.8 0.00 0.00 0.00 52 1010.6
20260903180511 33 117 0.0 4.8 0.00 0.00 0.00 51 1010.7
20260903180054 33 117 0.0 6.4 0.00 0.00 0.00 52 1010.8
20260903175535 33 173 1.6 6.4 0.00 0.00 0.00 52 1010.8
20260903175012 33 187 0.0 6.4 0.00 0.00 0.00 51 1011.0
20260903174556 33 163 1.6 6.4 0.00 0.00 0.00 52 1011.0
20260903174036 33 154 1.6 6.4 0.00 0.00 0.00 52 1011.0
20260903173532 32 176 1.6 8.0 0.00 0.00 0.00 52 1011.0
20260903173059 32 169 1.6 8.0 0.00 0.00 0.00 52 1011.1
20260903172535 32 161 1.6 8.0 0.00 0.00 0.00 53 1011.2
20260903172014 32 156 1.6 6.4 0.00 0.00 0.00 54 1011.2
20260903171611 32 166 0.0 6.4 0.00 0.00 0.00 57 1011.2
20260903171037 32 174 1.6 6.4 0.00 0.00 0.00 55 1011.3
20260903170517 32 153 1.6 4.8 0.00 0.00 0.00 55 1011.3
20260903165541 32 149 0.0 6.4 0.00 0.00 0.00 56 1011.4
20260903165018 32 157 1.6 6.4 0.00 0.00 0.00 57 1011.4
20260903164602 31 120 0.0 4.8 0.00 0.00 0.00 58 1011.5
20260903164042 31 158 0.0 4.8 0.00 0.00 0.00 58 1011.5
20260903163522 31 196 0.0 4.8 0.00 0.00 0.00 58 1011.5
20260903163002 31 153 0.0 4.8 0.00 0.00 0.00 59 1011.7
20260903162544 31 139 0.0 4.8 0.00 0.00 0.00 59 1011.6
20260903162024 31 164 0.0 4.8 0.00 0.00 0.00 60 1011.6
20260903161502 31 179 0.0 4.8 0.00 0.00 0.00 62 1011.7
20260903161045 31 156 1.6 4.8 0.00 0.00 0.00 62 1011.7
20260903160525 30 170 0.0 4.8 0.00 0.00 0.00 62 1011.7
20260903160005 30 180 0.0 6.4 0.00 0.00 0.00 61 1011.8
20260903155548 30 136 0.0 6.4 0.00 0.00 0.00 62 1011.8
20260903155035 30 137 0.0 6.4 0.00 0.00 0.00 63 1011.7
20260903154508 30 134 0.0 6.4 0.00 0.00 0.00 64 1011.7
20260903154052 30 135 0.0 1.6 0.00 0.00 0.00 66 1011.7
20260903153530 30 136 0.0 3.2 0.00 0.00 0.00 65 1011.7
20260903153009 30 157 0.0 3.2 0.00 0.00 0.00 65 1011.7
20260903152553 29 162 0.0 4.8 0.00 0.00 0.00 66 1011.7
20260903152032 29 166 1.6 4.8 0.00 0.00 0.00 67 1011.8
20260903151512 28 121 0.0 1.6 0.00 0.00 0.00 68 1011.8
20260903151055 28 113 0.0 1.6 0.00 0.00 0.00 68 1011.8
20260903150535 28 165 0.0 1.6 0.00 0.00 0.00 69 1011.8
20260903150020 28 133 0.0 3.2 0.00 0.00 0.00 69 1011.8
20260903145601 28 162 0.0 4.8 0.00 0.00 0.00 69 1011.9
20260903145038 28 160 0.0 6.4 0.00 0.00 0.00 69 1011.9
20260903144518 28 196 1.6 6.4 0.00 0.00 0.00 70 1011.8
20260903144106 27 153 1.6 6.4 0.00 0.00 0.00 70 1011.9
20260903143541 27 159 1.6 6.4 0.00 0.00 0.00 70 1011.9
20260903143032 27 159 0.0 3.2 0.00 0.00 0.00 71 1012.0
20260903142605 27 155 0.0 6.4 0.00 0.00 0.00 71 1012.0
20260903142043 27 157 0.0 6.4 0.00 0.00 0.00 71 1012.0
20260903141523 27 146 0.0 6.4 0.00 0.00 0.00 70 1012.1
20260903141005 26 127 1.6 6.4 0.00 0.00 0.00 71 1012.1
20260903140546 26 171 0.0 6.4 0.00 0.00 0.00 70 1012.1
20260903140025 26 164 0.0 6.4 0.00 0.00 0.00 70 1012.2
20260903135509 26 154 1.6 6.4 0.00 0.00 0.00 69 1012.2
20260903135049 26 124 0.0 0.0 0.00 0.00 0.00 68 1012.2
20260903134527 25 162 0.0 0.0 0.00 0.00 0.00 68 1012.1
20260903134006 25 137 0.0 0.0 0.00 0.00 0.00 68 1012.1
20260903133550 25 162 0.0 0.0 0.00 0.00 0.00 68 1012.1
20260903133030 25 153 0.0 0.0 0.00 0.00 0.00 66 1012.1
20260903132509 25 162 0.0 1.6 0.00 0.00 0.00 66 1012.1
20260903132052 25 162 0.0 1.6 0.00 0.00 0.00 65 1012.1
20260903131528 24 131 0.0 1.6 0.00 0.00 0.00 63 1012.1
20260903131008 24 119 0.0 1.6 0.00 0.00 0.00 62 1012.0
20260903130551 24 119 0.0 1.6 0.00 0.00 0.00 62 1012.0
20260903130030 24 146 0.0 0.0 0.00 0.00 0.00 61 1011.9
20260903125510 23 146 0.0 0.0 0.00 0.00 0.00 61 1011.9
20260903125053 23 146 0.0 0.0 0.00 0.00 0.00 61 1011.9
20260903124532 23 146 0.0 0.0 0.00 0.00 0.00 60 1011.8